Location: Newark
(35.0033°N, 81.0878°W)
Time: 04:52:50
(UTC+00:00)

Envisat - Pass Details

Date: 29 October 2020
Orbit: 764 x 766 km, 98.1° (Epoch: 30 November)

Event Time Altitude Azimuth Distance (km) Brightness Sun altitude
Rises 23:39:06 0° 202° (SSW) 3,217 6.6 -14.2°
Reaches altitude 10° 23:41:58 10° 219° (SW) 2,296 6.1 -14.8°
Maximum altitude 23:45:40 20° 266° (W) 1,704 5.9 -15.5°
Drops below altitude 10° 23:49:22 10° 313° (NW) 2,307 6.0 -16.3°
Sets 23:52:17 0° 330° (NNW) 3,237 6.6 -16.9°
